When you browse on this site, cookies collect data to enhance your experience and personalize the content and advertising you see.
Visit our Privacy Policy to learn more. By continuing to use the site, you agree to this use of cookies and data.
  • In Schweiz
  • Länderverzeichnis
  • Für 7 Tage
  • Wassertemperatur
  • Satellitenkarten
  • Wetterkarte
  • Widgets
  • user-avatar
    Anmelden

    Stündliche Wetter Zalozie

    Heute, 18 Februar, Montag

    Zeit Temperatur Niederschläge Wind Luftdruck Luftfeuchtigkeit
    00:00 +5°C° 0 mm 1 m/S 755 mmHg 72%
    01:00 +5°C° 0 mm 1 m/S 755 mmHg 73%
    02:00 +5°C° 0 mm 1 m/S 755 mmHg 75%
    03:00 +4°C° 0 mm 1 m/S 754 mmHg 76%
    04:00 +4°C° 0 mm 1 m/S 754 mmHg 78%
    05:00 +4°C° 0 mm 1 m/S 754 mmHg 79%
    06:00 +3°C° 0 mm 2 m/S 754 mmHg 79%
    07:00 +2°C° 0 mm 2 m/S 754 mmHg 80%
    08:00 +3°C° 0 mm 2 m/S 754 mmHg 74%
    09:00 +6°C° 0 mm 1 m/S 754 mmHg 69%
    10:00 +7°C° 0 mm 1 m/S 754 mmHg 63%
    11:00 +8°C° 0 mm 1 m/S 754 mmHg 58%
    12:00 +9°C° 0 mm 1 m/S 753 mmHg 52%
    13:00 +11°C° 0 mm 1 m/S 753 mmHg 47%
    14:00 +11°C° 0 mm 1 m/S 753 mmHg 48%
    15:00 +10°C° 0 mm 1 m/S 752 mmHg 50%
    16:00 +10°C° 0 mm 1 m/S 752 mmHg 52%
    17:00 +8°C° 0 mm 2 m/S 752 mmHg 55%
    18:00 +7°C° 0 mm 2 m/S 752 mmHg 58%
    19:00 +6°C° 0 mm 2 m/S 752 mmHg 61%
    20:00 +6°C° 0 mm 2 m/S 752 mmHg 64%
    21:00 +5°C° 0 mm 2 m/S 751 mmHg 67%
    22:00 +5°C° 0 mm 2 m/S 751 mmHg 70%
    23:00 +3°C° 0 mm 3 m/S 751 mmHg 73%

    Morgen, 19 Februar, Dienstag

    Zeit Temperatur Niederschläge Wind Luftdruck Luftfeuchtigkeit
    00:00 +3°C° 0 mm 3 m/S 751 mmHg 75%
    01:00 +3°C° 0 mm 3 m/S 751 mmHg 78%
    02:00 +2°C° 0 mm 3 m/S 750 mmHg 78%
    03:00 +2°C° 0 mm 3 m/S 750 mmHg 79%
    04:00 +1°C° 0 mm 3 m/S 750 mmHg 79%
    05:00 +1°C° 0 mm 3 m/S 750 mmHg 80%
    06:00 +1°C° 0 mm 3 m/S 749 mmHg 81%
    07:00 +1°C° 0 mm 3 m/S 749 mmHg 82%
    08:00 +1°C° 0 mm 4 m/S 749 mmHg 76%
    09:00 +4°C° 0 mm 4 m/S 749 mmHg 71%
    10:00 +5°C° 0 mm 4 m/S 749 mmHg 65%
    11:00 +6°C° 0 mm 4 m/S 749 mmHg 61%
    12:00 +8°C° 0 mm 4 m/S 748 mmHg 57%
    13:00 +10°C° 0 mm 4 m/S 748 mmHg 53%
    14:00 +10°C° 0 mm 4 m/S 748 mmHg 54%
    15:00 +10°C° 0 mm 4 m/S 748 mmHg 55%
    16:00 +10°C° 0 mm 3 m/S 747 mmHg 56%
    17:00 +9°C° 0 mm 3 m/S 747 mmHg 61%
    18:00 +7°C° 0 mm 4 m/S 748 mmHg 66%
    19:00 +6°C° 0 mm 4 m/S 748 mmHg 71%
    20:00 +5°C° 0.6 mm 4 m/S 748 mmHg 77%
    21:00 +5°C° 0.6 mm 5 m/S 748 mmHg 83%
    22:00 +5°C° 0.6 mm 5 m/S 749 mmHg 89%
    23:00 +5°C° 0.2 mm 5 m/S 749 mmHg 89%

    übermorgen, 20 Februar, Mittwoch

    Zeit Temperatur Niederschläge Wind Luftdruck Luftfeuchtigkeit
    00:00 +4°C° 0.2 mm 4 m/S 749 mmHg 89%
    01:00 +4°C° 0.2 mm 4 m/S 750 mmHg 90%
    02:00 +3°C° 0 mm 4 m/S 750 mmHg 90%
    03:00 +3°C° 0 mm 4 m/S 750 mmHg 91%
    04:00 +2°C° 0 mm 5 m/S 750 mmHg 92%
    05:00 +1°C° 0 mm 5 m/S 751 mmHg 92%
    06:00 +1°C° 0 mm 5 m/S 751 mmHg 92%
    07:00 +1°C° 0 mm 5 m/S 751 mmHg 93%
    08:00 +2°C° 0 mm 5 m/S 752 mmHg 88%
    09:00 +3°C° 0 mm 5 m/S 752 mmHg 83%
    10:00 +3°C° 0 mm 6 m/S 752 mmHg 78%
    11:00 +4°C° 0.1 mm 6 m/S 752 mmHg 74%
    12:00 +5°C° 0.1 mm 6 m/S 752 mmHg 69%
    13:00 +5°C° 0.1 mm 6 m/S 752 mmHg 64%
    14:00 +5°C° 0 mm 6 m/S 752 mmHg 64%
    15:00 +5°C° 0 mm 6 m/S 753 mmHg 65%
    16:00 +5°C° 0 mm 6 m/S 753 mmHg 65%
    17:00 +5°C° 0 mm 5 m/S 753 mmHg 70%
    18:00 +5°C° 0 mm 4 m/S 753 mmHg 74%
    19:00 +4°C° 0 mm 3 m/S 754 mmHg 79%
    20:00 +4°C° 0 mm 3 m/S 754 mmHg 80%
    21:00 +4°C° 0 mm 3 m/S 754 mmHg 81%
    22:00 +4°C° 0 mm 3 m/S 754 mmHg 83%
    23:00 +4°C° 0 mm 3 m/S 754 mmHg 83%

    21 Februar, Donnerstag

    Zeit Temperatur Niederschläge Wind Luftdruck Luftfeuchtigkeit
    00:00 +3°C° 0 mm 3 m/S 755 mmHg 84%
    01:00 +3°C° 0 mm 3 m/S 755 mmHg 84%
    02:00 +3°C° 0 mm 3 m/S 755 mmHg 86%
    03:00 +3°C° 0 mm 3 m/S 755 mmHg 87%
    04:00 +2°C° 0 mm 3 m/S 755 mmHg 88%
    05:00 +2°C° 0 mm 3 m/S 755 mmHg 89%
    06:00 +2°C° 0 mm 3 m/S 755 mmHg 90%
    07:00 +2°C° 0 mm 3 m/S 755 mmHg 91%
    08:00 +1°C° 0.1 mm 4 m/S 755 mmHg 88%
    09:00 +3°C° 0.1 mm 4 m/S 756 mmHg 84%
    10:00 +4°C° 0.1 mm 4 m/S 756 mmHg 81%
    11:00 +5°C° 0 mm 4 m/S 756 mmHg 77%
    12:00 +6°C° 0 mm 4 m/S 756 mmHg 73%
    13:00 +6°C° 0 mm 4 m/S 756 mmHg 69%
    14:00 +7°C° 0 mm 4 m/S 756 mmHg 69%
    15:00 +7°C° 0 mm 4 m/S 755 mmHg 70%
    16:00 +7°C° 0 mm 4 m/S 755 mmHg 70%
    17:00 +7°C° 0.2 mm 3 m/S 756 mmHg 75%
    18:00 +7°C° 0.2 mm 3 m/S 756 mmHg 81%
    19:00 +5°C° 0.2 mm 3 m/S 756 mmHg 86%
    20:00 +5°C° 0.1 mm 3 m/S 756 mmHg 88%
    21:00 +5°C° 0.1 mm 3 m/S 757 mmHg 89%
    22:00 +5°C° 0.1 mm 3 m/S 757 mmHg 90%
    23:00 +5°C° 0 mm 2 m/S 757 mmHg 92%

    22 Februar, Freitag

    Zeit Temperatur Niederschläge Wind Luftdruck Luftfeuchtigkeit
    00:00 +5°C° 0 mm 2 m/S 757 mmHg 94%
    01:00 +4°C° 0 mm 2 m/S 757 mmHg 96%
    02:00 +4°C° 0 mm 2 m/S 758 mmHg 96%
    03:00 +5°C° 0 mm 2 m/S 758 mmHg 97%
    04:00 +5°C° 0 mm 2 m/S 758 mmHg 97%
    05:00 +5°C° 0 mm 2 m/S 759 mmHg 97%
    06:00 +5°C° 0 mm 2 m/S 759 mmHg 97%
    07:00 +5°C° 0 mm 2 m/S 760 mmHg 97%
    08:00 +5°C° 0 mm 2 m/S 761 mmHg 95%
    09:00 +4°C° 0 mm 3 m/S 761 mmHg 93%
    10:00 +5°C° 0 mm 3 m/S 762 mmHg 91%
    11:00 +5°C° 0 mm 3 m/S 762 mmHg 89%
    12:00 +7°C° 0 mm 3 m/S 763 mmHg 86%
    13:00 +7°C° 0 mm 3 m/S 763 mmHg 84%
    14:00 +7°C° 0 mm 3 m/S 764 mmHg 82%
    15:00 +7°C° 0 mm 3 m/S 764 mmHg 80%
    16:00 +7°C° 0 mm 3 m/S 764 mmHg 78%
    17:00 +5°C° 0 mm 3 m/S 765 mmHg 76%
    18:00 +6°C° 0 mm 2 m/S 765 mmHg 74%
    19:00 +5°C° 0 mm 2 m/S 766 mmHg 71%
    20:00 +4°C° 0 mm 2 m/S 766 mmHg 66%
    21:00 +3°C° 0 mm 2 m/S 766 mmHg 61%
    22:00 +3°C° 0 mm 2 m/S 767 mmHg 56%
    23:00 +2°C° 0 mm 2 m/S 767 mmHg 56%

    23 Februar, Samstag

    Zeit Temperatur Niederschläge Wind Luftdruck Luftfeuchtigkeit
    00:00 +2°C° 0 mm 2 m/S 767 mmHg 56%
    01:00 +1°C° 0 mm 2 m/S 767 mmHg 56%
    02:00 +1°C° 0 mm 2 m/S 767 mmHg 57%
    03:00 +2°C° 0 mm 1 m/S 767 mmHg 57%
    04:00 +2°C° 0 mm 1 m/S 767 mmHg 57%
    05:00 +2°C° 0 mm 1 m/S 767 mmHg 57%
    06:00 +2°C° 0 mm 1 m/S 767 mmHg 56%
    07:00 +2°C° 0 mm 1 m/S 767 mmHg 55%
    08:00 +3°C° 0 mm 1 m/S 767 mmHg 52%
    09:00 +4°C° 0 mm 1 m/S 767 mmHg 49%
    10:00 +5°C° 0 mm 2 m/S 767 mmHg 46%
    11:00 +6°C° 0 mm 2 m/S 767 mmHg 49%
    12:00 +7°C° 0 mm 2 m/S 766 mmHg 53%
    13:00 +8°C° 0 mm 3 m/S 766 mmHg 56%
    14:00 +8°C° 0 mm 3 m/S 766 mmHg 61%
    15:00 +7°C° 0 mm 4 m/S 765 mmHg 67%
    16:00 +7°C° 0 mm 4 m/S 765 mmHg 72%
    17:00 +6°C° 0 mm 4 m/S 765 mmHg 78%
    18:00 +5°C° 0 mm 3 m/S 765 mmHg 84%
    19:00 +4°C° 0 mm 3 m/S 765 mmHg 90%
    20:00 +4°C° 0 mm 3 m/S 764 mmHg 90%
    21:00 +4°C° 0 mm 3 m/S 764 mmHg 90%
    22:00 +3°C° 0 mm 3 m/S 764 mmHg 90%
    23:00 +3°C° 0 mm 3 m/S 764 mmHg 91%
    Mehr zeigen